Location: Casone le Fosse
(44.6547°N, 12.1103°E)
Time: 04:04:49
(UTC+00:00)

CSL-04 Debris - Pass Details

Date: 29 October 2020
Orbit: 827 x 848 km, 98.9° (Epoch: 01 December)

Event Time Altitude Azimuth Distance (km) Brightness Sun altitude
Rises 17:35:23 0° 149° (SSE) 3,373 7.1 -16.7°
Reaches altitude 10° 17:37:46 10° 144° (SE) 2,446 6.3 -17.1°
Maximum altitude 17:43:01 52° 69° (ENE) 1,038 4.3 -18.1°
Drops below altitude 10° 17:48:19 10° 355° (N) 2,475 6.7 -19.0°
Sets 17:50:44 0° 351° (N) 3,417 7.5 -19.5°
